Content
SEND FEEDBACK

Daily
Averages
Monthly
Summary
Germany

LUBECK, GERMANY


Home > Europe > Germany
Elevation: 56 feet     Latitude: 54 00N     Longitude: 011 12E

WEATHER
 
SELECT A DAY
Number of Records: 58,389;   Date Range: 7/3/96 - 7/30/14
 
SHARE

PRINT THIS DATA

[ ← Previous Day ]
WEATHER ALMANAC - MARCH 23, 2013
[ Next Day → ]
[ °C ]   °F
Weather ElementAverageHighLow
Temperature25.3 °F26.6 °F (11:50 am)21.2 °F (8:20 am)
Dewpoint11.1 °F12.2 °F (10:20 am)10.4 °F (8:20 am)
Humidity55.5 %63 % (8:20 am)51 % (1:20 pm)
Barometer30.37 in30.39 in (8:20 am)30.36 in (12:50 pm)
Wind Speed19.8 mph25.3 mph (1:20 pm)
Weather ElementAverage
Visibility6.2 mi
Wind DirectionE (90.5 °)

Weather ElementTotal
Precipitation---
Heating Degree Days41.1 (Base 65)
Averaged from 22 records on March 23, 2013
WEATHER CONDITIONS BREAKOUT
WIND DIRECTION BREAKOUT
WEATHER BY HOUR - MARCH 23, 2013
[ °C ]   °F
Local TimeTemperatureDewpointHumidityBarometerVisibilityWind DirectionWind SpeedGust SpeedPrecipitationEventsConditions
8:20 AM21.2 °F10.4 °F63 %30.39 inEast (90°)13.8 mphClear
8:50 AM23.0 °F10.4 °F59 %30.39 inEast (100°)15.0 mphClear
9:20 AM23.0 °F10.4 °F59 %30.39 inEast (100°)15.0 mphClear
9:50 AM23.0 °F10.4 °F59 %30.39 inEast (100°)17.3 mphClear
10:20 AM24.8 °F12.2 °F59 %30.39 inEast (90°)19.6 mphClear
10:50 AM24.8 °F12.2 °F59 %30.39 inEast (100°)23.0 mphClear
11:20 AM24.8 °F12.2 °F59 %30.39 inEast (90°)21.9 mphClear
11:50 AM26.6 °F12.2 °F55 %30.39 in6.2 miEast (100°)20.7 mphPartly Cloudy
12:20 PM26.6 °F12.2 °F55 %30.39 in6.2 miEast (90°)23.0 mphPartly Cloudy
12:50 PM26.6 °F12.2 °F55 %30.36 inEast (90°)21.9 mphClear
1:20 PM26.6 °F10.4 °F51 %30.36 inEast (90°)25.3 mphClear
1:50 PM26.6 °F10.4 °F51 %30.36 inEast (90°)23.0 mphClear
2:20 PM26.6 °F12.2 °F55 %30.36 inEast (90°)21.9 mphClear
2:50 PM26.6 °F10.4 °F51 %30.36 inEast (90°)21.9 mphClear
3:20 PM26.6 °F10.4 °F51 %30.36 inEast (90°)20.7 mphClear
3:50 PM26.6 °F10.4 °F51 %30.36 inEast (80°)20.7 mphClear
4:20 PM26.6 °F12.2 °F55 %30.36 inEast (90°)21.9 mphClear
4:50 PM26.6 °F12.2 °F55 %30.36 inEast (80°)21.9 mphClear
5:20 PM26.6 °F10.4 °F51 %30.36 inEast (80°)19.6 mphClear
5:50 PM24.8 °F10.4 °F54 %30.36 inEast (80°)18.4 mphClear
6:20 PM24.8 °F10.4 °F54 %30.36 inEast (90°)15.0 mphClear
6:50 PM23.0 °F10.4 °F59 %30.36 inEast (90°)15.0 mphClear
Hourly data recorded from EDHL, located miles away from Lubeck, Germany







STORIES FROM OUR PARTNERS